sat.trackr.live / text

‹ back to catalog

STARLINK-31169

NORAD 58809 · 2024-012Y

PAYLOAD ACTIVE UNKNOWN

§ Identity

Operator
Country
US
Launch date
2024-01-15
Launch site
AFETR
Launch vehicle
Mass (kg)
RCS (m²)

Purposes: comms

External: N2YO · Heavens-Above · Gunter

§ Orbital elements

Epoch: 2026-05-24T23:41:42.052128Z

Period
94.27 min
Inclination
43.0041°
Eccentricity
0.0001801
Mean motion
15.27575578 rev/d
Perigee alt
481.8 km
Apogee alt
484.3 km
Semi-major
6,861.2 km
B*
-2.7593e-5
RAAN
94.4414°
Arg perigee
255.3744°
Mean anomaly
104.6908°
Rev number
13,290

§ Raw data

STARLINK-311691 58809U 24012Y   26144.98729227 -.00001021  00000+0 -27593-4 0  99972 58809  43.0041  94.4414 0001801 255.3744 104.6908 15.27575578132905

JSON: /api/v1/satellites/58809 · /tle

For live sub-satellite position, see the globe view (requires WebGL).

§ Visibility from observer

Set your observer location to see the next 7 days of passes ≥ 10°. The values pass through the URL so the page stays shareable.

No JS? Fill the form by hand. The geolocation button needs JavaScript.